Overview Statistics Trail Chart Weather Telemetry Raw packets
 

This is the latest recevied weather packets stored in our database for station/object M0JUI-1. If no packets are shown the sender has not sent any weather packets the latest 10 day(s).

<< 28 29 30 31 32 33 34 >>
Time Temp. Humidity Pressure Rain* Wind** Luminosity Snow
1788442497 20.56° C 6% 1015.2 hPa 0 mm - 226 W/m² -
1788442197 20.56° C 3% 1014.9 hPa 0 mm - 213 W/m² -
1788441897 21.67° C 1% 1015 hPa 0 mm - 192 W/m² -
1788441597 22.22° C 1% 1015.1 hPa 0 mm - 388 W/m² -
1788441297 22.22° C 1% 1015.1 hPa 0 mm - 442 W/m² -
1788440997 21.67° C 1% 1015.2 hPa 0 mm - 650 W/m² -
1788440697 21.67° C 1% 1015.3 hPa 0 mm - 633 W/m² -
1788440397 21.11° C 5% 1015.2 hPa 0 mm - 625 W/m² -
1788440097 21.67° C 5% 1015.5 hPa 0 mm - 304 W/m² -
1788439797 21.67° C 5% 1015.5 hPa 0 mm - 479 W/m² -
1788439497 21.67° C 6% 1015.6 hPa 0 mm - 485 W/m² -
1788439198 21.11° C 7% 1015.6 hPa 0 mm - 399 W/m² -
1788438897 20.56° C 7% 1015.5 hPa 0 mm - 499 W/m² -
1788438597 20.56° C 8% 1015.3 hPa 0 mm - 330 W/m² -
1788438298 20.56° C 7% 1015.4 hPa 0 mm - 292 W/m² -
1788437997 21.11° C 9% 1015.5 hPa 0 mm - 254 W/m² -
1788437697 21.67° C 8% 1015.4 hPa 0 mm - 248 W/m² -
1788437397 21.11° C 9% 1015.5 hPa 0 mm - 347 W/m² -
1788437097 20.56° C 11% 1015.3 hPa 0 mm - 425 W/m² -
1788436797 20.56° C 11% 1015.5 hPa 0 mm - 290 W/m² -
1788436497 20.56° C 13% 1015.7 hPa 0 mm - 358 W/m² -
1788436197 20.56° C 11% 1015.8 hPa 0 mm - 250 W/m² -
1788435897 20.56° C 12% 1015.5 hPa 0 mm - 412 W/m² -
1788435597 20.56° C 11% 1015.7 hPa 0 mm - 324 W/m² -
1788435297 20° C 12% 1015.7 hPa 0 mm - 412 W/m² -

* Rain latest hour (hover to see other rain measurements)
** Current wind speed in m/s (hover to see current wind gust speed)